EW1869 Weather Reports


time (UTC)temp
C
wind
direction
speed
KPH
gust
KPH
rain 1hr
cm
rain 24hr
cm
rain mn
cm
humidity
%
barometer
mb
20260508005005 18 40 0.0 4.8 0.00 0.00 0.00 51 1021.8
20260508004005 19 44 0.0 6.4 0.00 0.00 0.00 50 1021.8
20260508003006 19 129 0.0 3.2 0.00 0.00 0.00 50 1021.8
20260508001005 20 53 1.6 4.8 0.00 0.00 0.00 46 1021.8
20260508000006 20 101 0.0 6.4 0.00 0.00 0.00 46 1021.8
20260507235004 20 235 1.6 4.8 0.00 0.00 0.00 42 1021.8
20260507234004 20 48 4.8 6.4 0.00 0.00 0.00 44 1021.8
20260507233005 20 66 1.6 6.4 0.00 0.00 0.00 43 1021.9
20260507232011 20 71 0.0 3.2 0.00 0.00 0.00 43 1021.9
20260507231005 20 12 0.0 4.8 0.00 0.00 0.00 46 1022.0
20260507230007 20 70 1.6 4.8 0.00 0.00 0.00 43 1022.1
20260507225004 20 258 0.0 6.4 0.00 0.00 0.00 44 1022.2
20260507224005 20 280 0.0 4.8 0.00 0.00 0.00 39 1022.2
20260507223004 20 94 0.0 4.8 0.00 0.00 0.00 42 1022.3
20260507222005 20 124 0.0 4.8 0.00 0.00 0.00 42 1022.5
20260507221005 20 18 0.0 4.8 0.00 0.00 0.00 43 1022.6
20260507220008 20 169 1.6 3.2 0.00 0.00 0.00 43 1022.7
20260507215004 21 98 1.6 4.8 0.00 0.00 0.00 43 1022.7
20260507214006 21 160 0.0 3.2 0.00 0.00 0.00 51 1022.8
20260507213007 21 309 0.0 4.8 0.00 0.00 0.00 45 1022.7
20260507212005 21 253 1.6 8.0 0.00 0.00 0.00 46 1022.8
20260507211004 21 244 0.0 6.4 0.00 0.00 0.00 49 1023.0
20260507205005 21 96 1.6 6.4 0.00 0.00 0.00 49 1023.0
20260507204001 21 23 3.2 8.0 0.00 0.00 0.00 49 1022.9
20260507202005 21 257 1.6 6.4 0.00 0.00 0.00 44 1023.0
20260507200005 21 74 0.0 9.7 0.00 0.00 0.00 48 1023.0
20260507195005 21 71 3.2 6.4 0.00 0.00 0.00 48 1023.0
20260507194004 22 47 1.6 4.8 0.00 0.00 0.00 52 1023.1
20260507192005 21 153 0.0 6.4 0.00 0.00 0.00 51 1023.2
20260507191005 21 238 1.6 3.2 0.00 0.00 0.00 53 1023.2
20260507190006 21 57 1.6 4.8 0.00 0.00 0.00 50 1023.2
20260507185005 21 269 1.6 6.4 0.00 0.00 0.00 52 1023.2
20260507183004 20 328 0.0 6.4 0.00 0.00 0.00 53 1023.4
20260507182004 20 46 1.6 4.8 0.00 0.00 0.00 45 1023.3
20260507181005 20 13 1.6 8.0 0.00 0.00 0.00 48 1023.3
20260507175005 19 116 1.6 3.2 0.00 0.00 0.00 50 1023.2
20260507174021 18 116 1.6 8.0 0.00 0.00 0.00 56 1023.2
20260507173006 18 139 0.0 4.8 0.00 0.00 0.00 60 1023.2
20260507172005 18 66 1.6 3.2 0.00 0.00 0.00 57 1023.0
20260507171005 17 316 0.0 1.6 0.00 0.00 0.00 56 1023.2
20260507170006 17 136 0.0 1.6 0.00 0.00 0.00 61 1023.2
20260507165005 17 214 0.0 3.2 0.00 0.00 0.00 61 1023.1
20260507164005 16 148 0.0 3.2 0.00 0.00 0.00 60 1023.2
20260507163004 16 125 0.0 1.6 0.00 0.00 0.00 62 1023.2
20260507162006 16 131 0.0 1.6 0.00 0.00 0.00 59 1023.1
20260507161006 15 158 0.0 1.6 0.00 0.00 0.00 63 1023.1
20260507155005 15 194 0.0 0.0 0.00 0.00 0.00 61 1023.0
20260507153004 14 217 0.0 0.0 0.00 0.00 0.00 60 1023.0
20260507151004 13 58 0.0 1.6 0.00 0.00 0.00 60 1022.9
20260507145005 13 222 0.0 1.6 0.00 0.00 0.00 61 1022.8
20260507144005 12 195 0.0 0.0 0.00 0.00 0.00 65 1022.8
20260507142005 12 195 0.0 0.0 0.00 0.00 0.00 71 1022.8
20260507141001 12 195 0.0 0.0 0.00 0.00 0.00 73 1022.7
20260507135005 11 195 0.0 0.0 0.00 0.00 0.00 73 1022.4
20260507134004 11 195 0.0 0.0 0.00 0.00 0.00 74 1022.3
20260507133001 10 195 0.0 1.6 0.00 0.00 0.00 77 1022.2
20260507131004 10 195 0.0 0.0 0.00 0.00 0.00 83 1022.1
20260507130005 10 195 0.0 0.0 0.00 0.00 0.00 80 1022.2
20260507125004 11 195 0.0 0.0 0.00 0.00 0.00 77 1022.1
20260507124005 11 195 0.0 0.0 0.00 0.00 0.00 74 1022.1
20260507123005 11 195 0.0 0.0 0.00 0.00 0.00 73 1022.0
20260507122005 11 195 0.0 1.6 0.00 0.00 0.00 73 1022.0
20260507115004 11 195 0.0 1.6 0.00 0.00 0.00 77 1022.0
20260507113008 11 195 0.0 1.6 0.00 0.00 0.00 80 1022.0
20260507112007 11 195 0.0 1.6 0.00 0.00 0.00 79 1022.0
20260507111005 11 195 0.0 0.0 0.00 0.00 0.00 81 1022.0
20260507110005 11 195 0.0 0.0 0.00 0.00 0.00 81 1022.0
20260507105004 11 195 0.0 1.6 0.00 0.00 0.00 80 1022.1
20260507104004 11 195 0.0 1.6 0.00 0.00 0.00 80 1022.1
20260507103005 11 195 0.0 0.0 0.00 0.00 0.00 82 1022.1
20260507102002 11 195 0.0 1.6 0.00 0.00 0.00 83 1022.2
20260507100006 11 195 0.0 0.0 0.00 0.00 0.00 83 1022.0
20260507095005 11 195 0.0 0.0 0.00 0.00 0.00 84 1022.2
20260507094005 11 195 0.0 0.0 0.00 0.00 0.00 83 1022.2
20260507093006 11 195 0.0 0.0 0.00 0.00 0.00 82 1022.3
20260507092004 12 195 0.0 0.0 0.00 0.00 0.00 81 1022.3
20260507090006 12 195 0.0 0.0 0.00 0.00 0.00 77 1022.4
20260507085004 12 195 0.0 0.0 0.00 0.00 0.00 77 1022.5
20260507083005 12 195 0.0 0.0 0.00 0.00 0.00 77 1022.5
20260507082005 12 195 0.0 0.0 0.00 0.00 0.00 78 1022.5
20260507080005 12 195 0.0 1.6 0.00 0.00 0.00 79 1022.5
20260507075000 11 194 0.0 1.6 0.00 0.00 0.00 80 1022.6
20260507073004 12 194 0.0 1.6 0.00 0.00 0.00 80 1022.7
20260507072004 12 194 0.0 1.6 0.00 0.00 0.00 81 1022.7
20260507071004 12 194 0.0 0.0 0.00 0.00 0.00 81 1022.7
20260507070010 12 194 0.0 0.0 0.00 0.00 0.00 81 1022.7
20260507065001 12 194 0.0 0.0 0.00 0.00 0.00 82 1022.7
20260507063959 12 194 0.0 0.0 0.00 0.00 0.00 83 1022.6
20260507063005 12 187 0.0 0.0 0.00 0.00 0.00 84 1022.7
20260507062004 12 187 0.0 0.0 0.00 0.00 0.00 84 1022.6
20260507060006 12 187 0.0 0.0 0.00 0.00 0.00 84 1022.6
20260507055005 12 187 0.0 1.6 0.00 0.00 0.00 86 1022.6
20260507054005 12 187 0.0 0.0 0.00 0.00 0.00 83 1022.6
20260507052005 11 187 0.0 0.0 0.00 0.00 0.00 82 1022.6
20260507051005 12 187 0.0 0.0 0.00 0.00 0.00 85 1022.7
20260507050006 12 188 0.0 1.6 0.00 0.00 0.00 84 1022.6
20260507044005 11 187 0.0 0.0 0.00 0.00 0.00 89 1022.5
20260507043005 11 187 0.0 0.0 0.00 0.00 0.00 92 1022.5
20260507042004 11 187 0.0 0.0 0.00 0.00 0.00 93 1022.4
20260507041004 11 187 0.0 1.6 0.00 0.00 0.00 93 1022.4
20260507040007 11 108 0.0 0.0 0.00 0.00 0.00 92 1022.3
20260507035005 11 108 0.0 0.0 0.00 0.00 0.00 92 1022.2
20260507034004 11 107 0.0 0.0 0.00 0.00 0.00 92 1022.1
20260507032005 12 108 0.0 0.0 0.00 0.00 0.00 91 1022.1
20260507031004 12 108 0.0 0.0 0.00 0.00 0.00 90 1022.0
20260507030006 12 107 0.0 0.0 0.00 0.00 0.00 90 1022.0
20260507025005 12 108 0.0 0.0 0.00 0.00 0.00 89 1021.8
20260507024005 13 108 0.0 1.6 0.00 0.00 0.00 89 1021.7
20260507023004 13 105 0.0 0.0 0.00 0.00 0.00 88 1021.7
20260507022005 13 104 0.0 1.6 0.00 0.00 0.00 87 1021.6
20260507021005 14 108 0.0 1.6 0.00 0.00 0.00 86 1021.6
20260507020006 14 108 0.0 1.6 0.00 0.00 0.00 85 1021.7
20260507015005 15 333 0.0 1.6 0.00 0.00 0.00 84 1021.6
20260507014005 15 206 0.0 1.6 0.00 0.00 0.00 83 1021.6
20260507013005 15 349 0.0 4.8 0.00 0.00 0.00 82 1021.6
20260507012006 15 262 0.0 3.2 0.00 0.00 0.00 81 1021.6